SWARM B 1 39451U 13067A 21111.59296701 .00000635 00000-0 26259-4 0 9996 2 39451 87.7606 187.6469 0003953 100.7982 259.3709 15.21989943396820 SWARM A 1 39452U 13067B 21111.51387185 .00002314 00000-0 47366-4 0 9994 2 39452 87.3658 18.5138 0002303 89.8660 270.2862 15.45484374416747 SWARM C 1 39453U 13067C 21111.51379975 .00002324 00000-0 47590-4 0 9993 2 39453 87.3511 18.8442 0002300 89.9070 270.2452 15.45484646416703 BREEZE-KM R/B 1 39454U 13067D 21111.37577132 .00012530 00000-0 12164-3 0 9991 2 39454 87.5445 75.1858 0008128 90.1494 270.0707 15.66120897419787